Wind_Speed
32 30 30 31 32 33 35 34 32 31 31 27 21 19 16 17 19 19 19 22 23 23 23 22 22 21 20 20 20 20 22 23 22 20 19 17 17 19 19 18 15 13 14 15
30 29 29 30 31 31 32 32 31 28 27 25 20 19 17 17 20 23 22 24 25 24 23 24 25 23 23 22 21 21 22 22 20 19 18 19 20 20 19 20 20 20 20 20
32 29 30 30 30 30 30 30 30 29 27 26 24 23 21 20 23 25 24 25 25 24 24 26 27 26 25 24 22 22 22 21 20 19 19 20 21 21 20 21 23 24 25 25
27 27 26 23 22 23 23 24 25 26 26 25 26 25 22 23 25 24 22 24 25 25 26 28 30 26 25 24 23 22 22 22 22 21 22 23 24 22 21 21 22 23 24 26
21 20 20 18 18 20 22 22 22 22 24 23 24 26 24 25 26 23 22 24 26 27 28 30 29 25 24 24 23 22 21 21 21 22 23 24 23 21 22 22 23 24 24 25
22 22 19 17 18 21 23 24 25 26 26 26 23 26 26 24 24 24 24 25 26 27 29 29 28 26 25 24 23 23 22 21 21 22 21 20 19 19 21 23 24 24 24 22
23 23 22 21 21 23 24 25 24 24 23 23 22 24 25 23 24 24 24 25 26 27 29 30 27 26 27 26 25 24 24 22 20 19 18 16 15 15 17 20 22 22 21 20
26 26 26 25 26 27 26 25 24 23 22 22 22 25 25 23 23 24 25 25 26 28 28 27 24 24 25 26 25 24 24 22 20 18 16 14 13 13 14 16 18 18 18 17
27 28 28 29 29 29 28 28 26 26 26 26 25 25 27 26 25 26 28 28 28 29 28 25 23 23 23 24 23 22 21 20 19 17 15 14 13 13 15 16 16 16 15 14
26 29 29 30 30 28 28 27 27 29 30 30 29 27 28 27 26 28 29 29 28 28 27 25 22 23 24 25 24 21 19 18 17 15 14 13 13 14 15 17 16 15 14 15
24 26 26 30 32 31 29 29 28 29 30 31 31 29 28 27 27 28 29 28 28 27 26 25 24 25 25 25 24 22 19 17 16 15 15 14 15 15 15 16 16 16 15 15
23 24 24 26 33 35 34 33 31 31 32 32 32 29 24 25 26 29 29 29 28 27 25 25 26 26 26 25 23 20 18 17 17 16 17 17 18 19 19 18 17 17 17 16
29 28 28 28 31 32 35 36 35 34 34 33 31 29 27 27 25 25 26 27 27 26 25 24 25 27 28 26 22 19 17 17 17 18 19 20 21 22 21 20 19 19 18 16
28 28 26 24 28 31 30 34 35 36 37 38 37 34 30 28 26 25 27 28 27 25 24 24 25 28 29 26 22 19 17 16 17 18 20 22 22 23 23 22 21 20 19 17
25 27 26 22 21 24 23 24 28 33 37 40 37 35 28 25 27 29 29 27 25 23 23 24 26 29 28 25 22 19 17 18 19 20 21 22 22 22 22 23 22 21 21 20
24 24 24 22 21 22 21 19 23 27 30 33 32 26 23 27 30 31 29 26 24 24 24 25 28 29 25 22 20 19 20 22 23 24 24 23 22 22 22 23 22 22 22 22
23 22 21 19 18 16 14 15 16 18 19 24 26 22 23 26 28 28 27 27 27 27 28 28 27 23 20 20 21 22 24 26 27 27 27 25 24 23 23 24 24 24 24 25
24 24 22 18 17 15 16 16 16 18 21 23 24 23 22 23 23 24 25 26 27 27 25 22 19 18 20 22 23 25 26 27 27 27 27 26 25 24 25 25 25 25 25 25
22 22 21 17 13 13 15 15 16 16 13 11 11 11 11 12 14 16 18 18 18 17 16 15 16 19 21 22 23 24 25 26 26 26 27 27 27 26 26 26 27 26 25 25
20 17 16 14 11 9 12 12 11 8 7 6 5 6 7 7 7 8 8 9 9 9 10 13 16 19 21 21 21 22 23 25 26 27 28 28 28 27 26 27 28 29 28 27
21 17 15 14 12 11 11 11 12 13 11 11 10 10 10 10 8 7 6 6 6 7 10 14 16 17 18 19 20 22 24 26 27 27 27 28 28 28 28 29 30 31 30 29
22 19 16 16 15 16 17 17 18 16 15 13 12 11 10 9 8 6 4 4 6 10 13 14 15 16 17 18 20 22 24 25 25 25 24 24 25 27 28 30 30 31 30 30
22 22 17 20 22 23 23 22 20 19 17 14 12 10 8 7 6 3 2 6 9 12 14 14 14 15 16 18 20 22 21 21 21 20 19 19 20 23 25 26 28 29 29 30
28 29 22 20 27 27 25 23 22 20 17 14 11 8 7 6 4 1 3 7 11 13 13 13 13 14 15 18 20 20 19 19 18 17 16 16 16 17 18 20 23 25 26 27
33 34 27 23 24 26 25 24 24 21 17 14 10 8 7 6 4 3 4 7 11 12 12 12 12 13 16 19 20 19 18 17 16 15 14 13 13 14 15 17 17 17 18 19
32 34 30 26 26 25 25 26 26 24 19 15 12 9 8 7 5 5 6 8 10 11 11 11 12 13 16 18 20 19 18 16 14 13 12 12 12 12 14 14 12 7 4 8
Wind_Direction
246 247 247 251 256 262 266 268 271 272 272 276 276 269 253 251 262 273 277 275 275 275 276 277 279 287 292 298 304 309 313 311 304 302 295 289 287 292 289 287 288 283 275 264
245 244 245 250 256 264 267 267 268 270 269 267 262 258 249 250 261 269 273 272 272 274 275 278 284 287 292 298 302 306 308 305 298 294 290 286 288 290 285 279 278 277 276 273
253 253 254 255 258 262 263 262 261 262 263 260 255 251 253 259 265 271 273 272 272 274 277 282 285 286 291 295 298 302 304 302 293 288 289 289 288 285 276 270 268 270 272 273
251 251 254 256 259 258 255 257 257 256 256 253 256 252 251 264 270 275 274 271 271 275 279 283 284 284 289 292 295 299 301 298 290 287 288 287 283 276 267 261 261 265 271 269
250 249 251 255 253 250 250 254 257 255 253 253 255 258 256 264 271 273 270 267 269 274 277 280 283 288 292 293 293 295 295 292 288 287 286 284 279 269 262 259 262 266 271 267
252 255 254 249 244 243 246 248 250 251 254 254 255 258 261 266 268 268 267 265 268 272 275 281 289 292 293 295 296 296 296 292 290 287 285 281 276 267 262 263 267 271 274 266
245 244 242 238 238 238 238 241 246 249 252 254 256 259 265 268 267 268 268 268 273 276 279 287 292 295 300 302 302 298 298 296 291 285 284 281 274 268 266 266 267 271 273 268
236 233 233 230 232 234 234 238 244 248 248 251 253 257 262 265 268 271 274 277 280 282 287 294 298 300 303 306 305 300 298 295 289 284 283 282 275 272 278 281 279 274 273 272
237 231 232 232 231 233 236 240 244 247 249 250 252 257 261 264 267 270 274 277 282 287 293 297 300 304 303 304 309 306 299 293 289 287 286 284 279 276 281 287 291 287 275 267
247 239 235 236 237 236 238 242 246 249 252 253 253 257 264 268 270 273 277 280 285 290 294 297 296 299 299 299 304 305 297 289 285 287 288 288 287 285 285 287 291 293 282 269
253 250 242 242 242 241 242 244 247 253 256 259 262 263 268 275 277 276 278 281 284 288 291 293 291 290 295 298 299 299 290 280 277 279 284 288 291 293 294 292 292 291 288 276
257 257 256 248 247 248 248 250 253 257 262 264 264 263 271 279 277 274 275 278 281 285 286 286 287 288 294 300 301 299 286 274 271 274 279 284 289 291 292 292 292 291 287 281
260 263 266 255 246 248 252 253 254 255 257 258 259 264 272 277 277 271 270 275 277 281 282 281 283 290 297 300 302 301 290 275 270 271 276 281 284 286 287 288 289 289 285 276
259 259 263 263 246 247 255 250 249 252 257 260 262 264 268 274 275 272 273 276 276 275 275 277 283 293 297 296 297 299 294 285 277 277 279 280 281 283 284 283 283 281 277 270
263 259 258 260 257 253 255 251 250 252 255 259 264 266 265 263 265 268 273 272 271 271 274 279 288 295 296 293 293 294 293 292 291 291 289 286 282 282 280 278 276 274 269 266
264 264 261 259 261 264 260 249 251 258 263 265 269 272 265 259 258 263 266 265 267 271 278 285 292 295 294 292 291 291 294 297 300 299 297 293 286 281 276 273 273 271 269 268
258 264 261 254 256 267 259 249 269 282 279 274 274 271 260 257 257 257 257 262 268 272 279 286 291 290 290 291 290 291 294 298 300 300 299 294 288 279 274 272 273 272 269 268
254 259 262 255 250 264 271 276 284 287 284 280 278 273 264 257 252 252 257 264 269 273 278 284 286 290 293 293 293 294 296 297 298 297 295 291 288 283 279 278 277 274 271 268
253 259 260 257 251 258 272 282 285 284 280 278 275 268 255 246 244 248 255 260 262 265 271 280 288 293 295 295 296 296 297 297 298 297 294 291 288 284 279 277 275 273 272 270
241 252 251 239 236 251 265 270 261 231 181 176 174 173 165 168 192 216 230 241 250 263 278 287 290 292 295 298 298 298 298 299 300 298 294 291 288 284 280 276 273 273 271 268
233 238 237 227 226 242 236 219 191 171 166 166 163 159 156 155 169 192 216 240 268 287 295 295 296 298 302 304 305 305 306 305 303 299 293 288 285 284 281 278 275 273 271 268
231 234 233 224 224 210 199 191 184 176 176 173 175 180 184 179 175 189 225 276 298 304 306 307 307 308 310 312 314 315 313 311 308 304 298 292 287 284 282 280 277 272 269 266
224 228 222 210 209 205 202 194 190 189 186 185 189 195 200 191 173 171 283 305 309 310 312 313 311 311 315 320 323 322 319 317 315 313 309 302 296 291 287 283 278 273 268 263
224 226 227 213 202 204 205 199 197 196 194 193 196 198 204 210 214 226 302 311 314 315 314 314 315 318 325 330 331 329 325 323 323 322 320 315 311 308 303 295 285 275 266 258
236 230 228 219 206 204 206 205 204 205 202 200 202 207 216 226 245 266 292 315 322 322 320 320 320 326 331 334 336 336 335 334 332 331 333 334 335 333 326 318 305 286 266 251
242 234 229 223 217 211 212 213 211 212 209 206 210 219 229 241 258 273 297 319 326 325 322 320 318 322 329 334 339 344 348 346 340 337 340 344 348 351 352 353 350 338 267 220
Height
5836 5840 5843 5845 5846 5847 5849 5851 5853 5854 5853 5853 5854 5854 5854 5854 5853 5854 5854 5853 5852 5851 5851 5850 5849 5848 5846 5844 5842 5840 5838 5836 5834 5832 5830 5829 5829 5829 5827 5826 5825 5826 5828 5828
5832 5834 5836 5837 5840 5841 5842 5843 5846 5847 5846 5847 5848 5849 5850 5849 5849 5848 5848 5848 5847 5847 5846 5845 5844 5842 5840 5839 5837 5835 5833 5831 5829 5827 5826 5826 5825 5824 5823 5822 5821 5821 5823 5824
5826 5829 5829 5831 5833 5835 5835 5837 5838 5840 5840 5841 5842 5844 5844 5844 5843 5843 5843 5842 5841 5841 5840 5840 5839 5837 5835 5833 5831 5829 5827 5825 5823 5822 5821 5820 5820 5819 5818 5818 5817 5817 5818 5819
5821 5822 5824 5825 5827 5828 5829 5830 5831 5832 5834 5835 5837 5838 5839 5838 5837 5838 5838 5837 5836 5835 5834 5834 5833 5832 5830 5828 5826 5823 5821 5819 5817 5815 5814 5813 5813 5813 5813 5812 5812 5812 5813 5813
5815 5817 5819 5820 5821 5822 5823 5824 5825 5826 5827 5830 5831 5832 5834 5833 5832 5832 5832 5831 5830 5830 5829 5829 5828 5826 5824 5822 5820 5818 5815 5813 5811 5809 5807 5806 5805 5805 5805 5805 5806 5806 5806 5806
5811 5812 5814 5815 5815 5816 5817 5819 5819 5820 5822 5825 5826 5826 5827 5827 5826 5826 5825 5825 5824 5824 5824 5823 5822 5821 5819 5816 5814 5811 5809 5807 5805 5803 5801 5800 5799 5799 5799 5799 5799 5800 5799 5799
5806 5807 5808 5809 5810 5811 5812 5813 5813 5814 5815 5818 5819 5820 5821 5821 5821 5821 5820 5820 5819 5819 5819 5818 5816 5814 5812 5810 5807 5804 5801 5800 5798 5797 5795 5794 5794 5793 5793 5793 5793 5793 5793 5792
5801 5802 5802 5802 5804 5805 5805 5807 5808 5809 5810 5812 5813 5814 5816 5816 5816 5815 5815 5815 5814 5814 5813 5812 5811 5809 5806 5803 5801 5798 5796 5794 5792 5791 5790 5789 5789 5788 5788 5787 5787 5787 5786 5786
5795 5797 5796 5796 5796 5798 5800 5801 5803 5803 5803 5805 5807 5809 5810 5811 5811 5810 5810 5809 5808 5807 5807 5806 5805 5803 5801 5798 5796 5793 5791 5789 5788 5787 5785 5784 5784 5784 5783 5783 5782 5781 5781 5781
5790 5791 5792 5791 5792 5793 5795 5796 5797 5797 5797 5798 5801 5802 5804 5804 5804 5804 5804 5803 5802 5802 5801 5801 5800 5798 5795 5793 5791 5788 5786 5784 5783 5783 5781 5780 5780 5779 5779 5778 5777 5777 5777 5777
5785 5786 5787 5787 5788 5789 5790 5791 5791 5792 5792 5793 5795 5800 5799 5799 5799 5798 5797 5797 5796 5795 5795 5795 5794 5793 5790 5788 5786 5783 5780 5779 5778 5778 5777 5776 5775 5775 5774 5773 5773 5772 5772 5772
5779 5780 5781 5782 5782 5783 5785 5786 5786 5787 5787 5787 5789 5795 5794 5794 5793 5792 5791 5791 5790 5790 5789 5789 5788 5786 5784 5782 5779 5777 5774 5773 5772 5772 5772 5771 5770 5769 5769 5768 5768 5767 5767 5767
5772 5773 5774 5775 5778 5777 5777 5778 5779 5780 5781 5780 5782 5788 5786 5787 5786 5785 5785 5784 5784 5784 5783 5783 5782 5780 5778 5776 5773 5771 5769 5767 5767 5767 5766 5766 5765 5764 5763 5763 5762 5762 5761 5762
5764 5765 5766 5766 5766 5768 5769 5770 5772 5773 5774 5773 5774 5778 5780 5780 5779 5779 5778 5778 5778 5777 5777 5777 5776 5774 5772 5770 5768 5766 5764 5763 5762 5761 5761 5760 5759 5758 5757 5757 5757 5757 5757 5757
5757 5757 5758 5759 5760 5761 5762 5764 5765 5765 5765 5764 5766 5768 5773 5773 5772 5771 5771 5771 5771 5771 5770 5770 5769 5767 5765 5763 5762 5760 5759 5758 5757 5756 5755 5754 5753 5752 5751 5750 5750 5751 5751 5751
5749 5750 5752 5754 5755 5754 5756 5758 5757 5757 5757 5757 5757 5759 5763 5762 5762 5762 5763 5764 5764 5764 5764 5764 5762 5760 5759 5757 5755 5754 5753 5752 5750 5749 5748 5747 5746 5745 5744 5744 5744 5744 5744 5745
5743 5744 5746 5748 5748 5749 5751 5751 5752 5752 5751 5749 5748 5751 5751 5751 5751 5753 5755 5756 5757 5758 5758 5758 5756 5754 5753 5751 5750 5748 5747 5745 5743 5741 5740 5738 5738 5737 5737 5736 5736 5737 5738 5738
5737 5738 5739 5741 5744 5744 5746 5745 5745 5744 5743 5742 5740 5740 5740 5741 5742 5745 5748 5750 5751 5752 5752 5752 5751 5750 5748 5746 5744 5742 5740 5738 5737 5734 5732 5730 5729 5729 5729 5729 5728 5729 5730 5730
5730 5731 5733 5735 5737 5738 5739 5739 5739 5739 5738 5736 5734 5733 5733 5734 5737 5740 5742 5744 5745 5746 5747 5747 5746 5745 5743 5741 5738 5736 5734 5732 5730 5727 5724 5722 5721 5721 5721 5720 5720 5720 5721 5722
5723 5725 5728 5730 5732 5733 5734 5734 5734 5735 5735 5734 5732 5731 5731 5732 5735 5738 5739 5741 5742 5743 5744 5743 5741 5739 5737 5735 5733 5731 5729 5726 5723 5720 5717 5714 5713 5712 5712 5712 5711 5712 5712 5713
5717 5719 5721 5723 5726 5727 5729 5730 5731 5733 5732 5731 5731 5730 5730 5731 5734 5736 5738 5739 5740 5740 5739 5738 5736 5734 5732 5730 5728 5725 5722 5719 5716 5712 5709 5707 5705 5703 5703 5703 5703 5703 5703 5704
5712 5715 5716 5718 5721 5724 5724 5726 5728 5728 5728 5729 5729 5730 5730 5730 5731 5734 5736 5737 5737 5736 5735 5733 5731 5729 5727 5725 5722 5719 5715 5712 5708 5704 5702 5699 5697 5696 5694 5693 5693 5693 5694 5694
5705 5707 5707 5711 5716 5717 5719 5722 5724 5725 5727 5728 5728 5729 5730 5731 5730 5731 5733 5733 5733 5732 5730 5729 5727 5726 5724 5721 5718 5714 5710 5706 5702 5699 5695 5693 5690 5688 5686 5685 5683 5683 5683 5684
5695 5695 5698 5702 5708 5712 5716 5719 5722 5724 5726 5727 5727 5728 5730 5731 5731 5730 5730 5730 5729 5728 5727 5725 5724 5722 5720 5717 5713 5709 5705 5701 5697 5694 5691 5688 5685 5682 5679 5676 5674 5672 5672 5673
5686 5688 5692 5697 5703 5708 5713 5716 5719 5722 5724 5726 5726 5728 5730 5731 5730 5729 5728 5728 5726 5725 5724 5722 5721 5719 5717 5714 5710 5706 5701 5697 5694 5691 5688 5685 5682 5678 5675 5671 5666 5663 5663 5664
5679 5683 5689 5694 5698 5704 5709 5712 5716 5719 5723 5724 5725 5727 5728 5729 5729 5728 5727 5726 5724 5723 5722 5720 5719 5717 5715 5712 5708 5703 5699 5695 5692 5690 5687 5684 5681 5678 5673 5668 5663 5659 5658 5660